Regional Weather Roundup
Issued by NWS Sioux Falls, SD

Home | Current Version | Previous Version | Text Only | Print | Product List | Glossary On
Versions: 1 2 3 4 5 6 7 8 9 10 11 12 13 14 15 16 17 18 19 20 21 22 23 24 25 26 27 28 29 30 31 32 33 34 35 36 37 38 39 40 41 42 43 44 45 46 47 48 49 50
000
ASUS43 KFSD 011710
RWRFSD

WEATHER ROUNDUP FOR SE SOUTH DAKOTA/SW MINNESOTA/NW IOWA
NATIONAL WEATHER SERVICE SIOUX FALLS SD
1200 PM CDT SAT OCT 01 2016

NOTE: "FAIR" INDICATES FEW OR NO CLOUDS BELOW 12,000 FEET WITH NO
SIGNIFICANT WEATHER AND OR OBSTRUCTIONS TO VISIBILITY.


SDZ038>040-050-052>070-011800-
SOUTHEAST SOUTH DAKOTA

CITY           SKY/WX    TMP DP  RH WIND       PRES   REMARKS
BROOKINGS      CLOUDY    66  54  65 SE7       30.13F
CHAMBERLAIN    MOSUNNY   72  49  43 SE17      30.05F
HURON          SUNNY     69  48  47 S16       30.09F
MADISON        FAIR      66  55  68 S12       30.14S
MITCHELL       SUNNY     69  52  54 S14       30.11F
SIOUX FALLS    CLOUDY    67  57  70 SE5       30.14F
WINNER         FAIR      72  49  44 S15G23    30.04F
YANKTON        SUNNY     66  55  68 E6        30.11F
$$

MNZ071-072-080-081-089-090-097-098-011800-
SOUTHWEST MINNESOTA

CITY           SKY/WX    TMP DP  RH WIND       PRES   REMARKS
FAIRMONT       CLOUDY    67  55  65 VRB6      30.13F
JACKSON        PTSUNNY   68  52  56 NE8       30.14F
LUVERNE        CLOUDY    63  54  72 CALM      30.15F
MARSHALL       PTSUNNY   64  56  75 CALM      30.15F
MONTEVIDEO     MOSUNNY   68  55  64 CALM      30.16F
PIPESTONE      CLOUDY    64  55  72 CALM      30.15S
REDWOOD FALLS  SUNNY     67  54  63 S3        30.14F
TRACY          CLOUDY    67  56  67 CALM      30.15F
WINDOM         MOSUNNY   68  54  60 NE6       30.14F
WORTHINGTON    CLOUDY    64  56  75 VRB3      30.15F
$$

IAZ001>003-012>014-020>022-031-032-NEZ013-014-SDZ071-011800-
NORTHWEST IOWA

CITY           SKY/WX    TMP DP  RH WIND       PRES   REMARKS
CHEROKEE       CLOUDY    64  58  81 CALM      30.14F
DENISON        PTSUNNY   64  57  77 NE10      30.11F
ESTHERVILLE    CLOUDY    66  56  70 N6        30.13F
LE MARS        CLOUDY    63  57  82 E5        30.15S
SHELDON        CLOUDY    64  57  77 N3        30.13F
SIOUX CITY     CLOUDY    64  58  80 E6        30.14S
SPENCER        CLOUDY    67  57  70 VRB5      30.13F
STORM LAKE     PTSUNNY   64  55  72 NE3       30.14F
$$

ABBREVIATIONS USED IN REMARKS
   TC - TEMPERATURE IN CELSIUS
  WCI - WIND CHILL INDEX
   HX - HEAT INDEX
  VSB - VISIBILITY




USA.gov is the U.S. government's official web portal to all federal, state and local government web resources and services.